Погода в Большой Галке

Россия / Томская область     56°55′27″N   81°57′57″E
темп.,
°C
ветер,
м/с
пор.,
м/с
влажн.,
%
обл.,
%
осадки,
мм/ч
давл.,
гПа
погр.,
м
28 июля, ср
ср2801:00+14з2565100 0.0 1009133
04:00+14зюз2264100 0.0 100858
07:00+13юз2471100 0.0 100994
10:00+16ююз136398 0.0 1009261
13:00+17ю2360100 0.0 1010464
16:00+20ю3345100 0.0 10092049
19:00+18ююз256234 0.0 1009204
22:00+13ююз24765 0.0 100963
29 июля, чт
чт2901:00+14ю257499 0.0 1009102
04:00+10ю25895 0.0 100977
07:00+12ююв278015 0.0 1009156
10:00+18ю4755100 0.0 1008617
13:00+20ююз4746100 0.0 10071064
16:00+19юз5855100 0.0 10071076
19:00+18з45600 0.0 10081009
22:00+12зюз11910 0.0 100910
30 июля, пт
пт3001:00+11з119552 0.0 100910
04:00+11сз11915 0.0 101021
07:00+10зсз24910 0.0 1011119
10:00+17з35515 0.0 1012912
13:00+20з363823 0.0 10122188
16:00+19з3648100 0.0 10121311
19:00+20з265173 0.0 10121346
22:00+15ююз2771100 0.0 1013121
31 июля, сб
сб3101:00+15ююз4126393 0.0 1013396
04:00+16ююз41259100 0.0 1013421
07:00+14ююз3126499 0.0 1014343
10:00+20ююз594947 0.0 1014537
13:00+24ююз583552 0.0 10131895
16:00+25ююз5734100 0.0 10122431
19:00+23ю374363 0.0 1012937
22:00+17юв3564100 0.0 101379
1 августа, вс
вс101:00+15юв3126995 0.0 1012258
04:00+15юв2472100 0.0 1012113
07:00+15юв2373100 0.0 101281
10:00+19ю135923 0.0 1013226
13:00+25ююв334321 0.0 10121254
16:00+21в116398 0.0 101217
19:00+24вюв125321 0.0 1012363
22:00+18в117536 0.0 101211